AXM1194 WBGR-WBKK

Flight info

Callsign AXM1194
Flight time 0h 35m
Altitude 21000
Route GODOM1A GODOM DCT BRU DCT DULIM DULIM2A
Aircraft A320/M-SDE3FGHIRWY/LB1

Departure

Time 2026-04-20 09:10
Airport Miri Airport (WBGR)

Arrival

Time 2026-04-20 09:46
Airport Kota Kinabalu International Airport (WBKK)
Time Latitude Longitude Altitude Speed Heading
2026-04-20 08:33 4.32429 113.98409 63 ft 0 kts 295°
2026-04-20 08:59 4.32428 113.98412 62 ft 3 kts 295°
2026-04-20 08:59 4.32417 113.98437 57 ft 4 kts 289°
2026-04-20 08:59 4.32410 113.98463 60 ft 4 kts 276°
2026-04-20 08:59 4.32411 113.98487 57 ft 2 kts 248°
2026-04-20 09:00 4.32412 113.98489 57 ft 1 kts 247°
2026-04-20 09:03 4.32403 113.98482 57 ft 5 kts 210°
2026-04-20 09:03 4.32371 113.98469 62 ft 4 kts 193°
2026-04-20 09:03 4.32347 113.98464 56 ft 3 kts 193°
2026-04-20 09:03 4.32311 113.98449 62 ft 9 kts 204°
2026-04-20 09:04 4.32258 113.98429 62 ft 7 kts 184°
2026-04-20 09:04 4.32233 113.98446 57 ft 2 kts 121°
2026-04-20 09:04 4.32224 113.98462 63 ft 6 kts 119°
2026-04-20 09:04 4.32192 113.98484 64 ft 7 kts 173°
2026-04-20 09:05 4.32128 113.98459 62 ft 13 kts 205°
2026-04-20 09:05 4.32048 113.98422 61 ft 12 kts 205°
2026-04-20 09:05 4.31978 113.98390 65 ft 11 kts 204°
2026-04-20 09:05 4.31900 113.98354 65 ft 14 kts 205°
2026-04-20 09:06 4.31812 113.98312 62 ft 14 kts 205°
2026-04-20 09:06 4.31721 113.98269 67 ft 15 kts 204°
2026-04-20 09:06 4.31629 113.98227 64 ft 14 kts 206°
2026-04-20 09:06 4.31540 113.98185 67 ft 14 kts 205°
2026-04-20 09:07 4.31444 113.98142 70 ft 16 kts 203°
2026-04-20 09:07 4.31340 113.98094 61 ft 14 kts 206°
2026-04-20 09:07 4.31261 113.98058 68 ft 12 kts 198°
2026-04-20 09:07 4.31209 113.98086 68 ft 8 kts 120°
2026-04-20 09:08 4.31189 113.98128 61 ft 6 kts 115°
2026-04-20 09:08 4.31174 113.98161 64 ft 4 kts 115°
2026-04-20 09:08 4.31163 113.98184 67 ft 4 kts 114°
2026-04-20 09:08 4.31179 113.98215 69 ft 5 kts 37°
2026-04-20 09:09 4.31199 113.98224 62 ft 0 kts 23°
2026-04-20 09:09 4.31222 113.98234 68 ft 24 kts 24°
2026-04-20 09:09 4.31615 113.98416 65 ft 97 kts 25°
2026-04-20 09:09 4.32410 113.98786 64 ft 153 kts 25°
2026-04-20 09:10 4.33448 113.99280 464 ft 164 kts 26°
2026-04-20 09:10 4.34452 113.99818 1111 ft 167 kts 28°
2026-04-20 09:10 4.35479 114.00413 1714 ft 172 kts 32°
2026-04-20 09:10 4.36392 114.01181 2360 ft 172 kts 49°
2026-04-20 09:11 4.37028 114.02235 2782 ft 187 kts 66°
2026-04-20 09:11 4.37518 114.03528 3039 ft 211 kts 70°
2026-04-20 09:11 4.38025 114.04997 3387 ft 235 kts 71°
2026-04-20 09:11 4.38593 114.06612 3785 ft 258 kts 70°
2026-04-20 09:12 4.39227 114.08344 4467 ft 268 kts 69°
2026-04-20 09:12 4.39894 114.10103 5306 ft 272 kts 69°
2026-04-20 09:12 4.40584 114.11884 6157 ft 276 kts 68°
2026-04-20 09:12 4.41290 114.13677 6986 ft 279 kts 68°
2026-04-20 09:13 4.42011 114.15501 7805 ft 283 kts 68°
2026-04-20 09:13 4.42746 114.17340 8609 ft 286 kts 66°
2026-04-20 09:13 4.43710 114.19083 9385 ft 289 kts 57°
2026-04-20 09:13 4.44798 114.20798 10151 ft 292 kts 57°
2026-04-20 09:14 4.45903 114.22541 10727 ft 305 kts 57°
2026-04-20 09:14 4.47076 114.24400 10938 ft 328 kts 57°
2026-04-20 09:14 4.48331 114.26389 11282 ft 344 kts 57°
2026-04-20 09:14 4.49624 114.28439 11918 ft 350 kts 57°
2026-04-20 09:15 4.50927 114.30510 12596 ft 354 kts 57°
2026-04-20 09:15 4.52253 114.32613 13270 ft 358 kts 57°
2026-04-20 09:15 4.53586 114.34726 13926 ft 361 kts 57°
2026-04-20 09:15 4.54933 114.36864 14569 ft 365 kts 57°
2026-04-20 09:16 4.56296 114.39027 15187 ft 368 kts 57°
2026-04-20 09:16 4.57667 114.41202 15797 ft 371 kts 57°
2026-04-20 09:16 4.59053 114.43403 16395 ft 375 kts 57°
2026-04-20 09:16 4.60451 114.45626 16968 ft 378 kts 57°
2026-04-20 09:17 4.61857 114.47854 17538 ft 381 kts 57°
2026-04-20 09:17 4.62803 114.49350 17909 ft 383 kts 57°
2026-04-20 09:17 4.64233 114.51619 18475 ft 387 kts 57°
2026-04-20 09:17 4.65671 114.53902 19010 ft 390 kts 57°
2026-04-20 09:18 4.67127 114.56213 19545 ft 393 kts 57°
2026-04-20 09:18 4.68591 114.58539 20076 ft 396 kts 57°
2026-04-20 09:18 4.70064 114.60883 20597 ft 399 kts 57°
2026-04-20 09:18 4.71549 114.63245 20934 ft 402 kts 57°
2026-04-20 09:19 4.73042 114.65616 21001 ft 403 kts 57°
2026-04-20 09:19 4.74540 114.67994 21009 ft 403 kts 57°
2026-04-20 09:19 4.76038 114.70371 21009 ft 403 kts 57°
2026-04-20 09:19 4.77534 114.72749 21011 ft 403 kts 57°
2026-04-20 09:20 4.79033 114.75130 21009 ft 404 kts 57°
2026-04-20 09:20 4.80528 114.77503 21009 ft 404 kts 57°
2026-04-20 09:20 4.82028 114.79889 21009 ft 404 kts 57°
2026-04-20 09:20 4.83524 114.82268 21011 ft 403 kts 57°
2026-04-20 09:21 4.85021 114.84648 21009 ft 403 kts 57°
2026-04-20 09:21 4.86514 114.87026 21008 ft 403 kts 57°
2026-04-20 09:21 4.88137 114.89307 21006 ft 403 kts 49°
2026-04-20 09:21 4.89995 114.91412 21006 ft 403 kts 48°
2026-04-20 09:22 4.91866 114.93518 21006 ft 403 kts 48°
2026-04-20 09:22 4.93726 114.95614 21007 ft 403 kts 48°
2026-04-20 09:22 4.95587 114.97714 21008 ft 403 kts 48°
2026-04-20 09:22 4.97445 114.99816 21008 ft 403 kts 48°
2026-04-20 09:23 4.99309 115.01925 21007 ft 403 kts 48°
2026-04-20 09:23 5.01162 115.04021 21009 ft 406 kts 48°
2026-04-20 09:23 5.03080 115.06192 21012 ft 422 kts 48°
2026-04-20 09:23 5.05055 115.08426 21010 ft 432 kts 48°
2026-04-20 09:24 5.07029 115.10655 21009 ft 434 kts 48°
2026-04-20 09:24 5.09058 115.12950 21009 ft 435 kts 48°
2026-04-20 09:24 5.11061 115.15223 21009 ft 435 kts 48°
2026-04-20 09:24 5.13038 115.17467 21009 ft 435 kts 48°
2026-04-20 09:25 5.15041 115.19737 21009 ft 435 kts 48°
2026-04-20 09:25 5.17046 115.22008 21009 ft 435 kts 48°
2026-04-20 09:25 5.19052 115.24279 21009 ft 435 kts 48°
2026-04-20 09:25 5.21058 115.26548 21005 ft 429 kts 48°
2026-04-20 09:26 5.22997 115.28737 21006 ft 411 kts 48°
2026-04-20 09:26 5.24874 115.30859 21009 ft 405 kts 48°
2026-04-20 09:26 5.26738 115.32972 21009 ft 403 kts 48°
2026-04-20 09:26 5.28600 115.35078 21009 ft 403 kts 48°
2026-04-20 09:27 5.30456 115.37177 21009 ft 403 kts 48°
2026-04-20 09:27 5.32315 115.39283 21009 ft 403 kts 48°
2026-04-20 09:27 5.34170 115.41390 21009 ft 403 kts 48°
2026-04-20 09:27 5.36021 115.43496 21009 ft 403 kts 48°
2026-04-20 09:28 5.37863 115.45586 20835 ft 396 kts 48°
2026-04-20 09:28 5.39667 115.47628 20593 ft 386 kts 48°
2026-04-20 09:28 5.41433 115.49626 20284 ft 379 kts 48°
2026-04-20 09:28 5.43170 115.51592 19822 ft 376 kts 48°
2026-04-20 09:29 5.44941 115.53518 19346 ft 374 kts 43°
2026-04-20 09:29 5.46948 115.55159 18869 ft 371 kts 37°
2026-04-20 09:29 5.48999 115.56717 18389 ft 370 kts 37°
2026-04-20 09:29 5.51049 115.58275 17912 ft 368 kts 37°
2026-04-20 09:30 5.53085 115.59823 17447 ft 366 kts 37°
2026-04-20 09:30 5.55108 115.61362 16969 ft 364 kts 37°
2026-04-20 09:30 5.57120 115.62893 16520 ft 362 kts 37°
2026-04-20 09:30 5.59123 115.64418 16060 ft 361 kts 37°
2026-04-20 09:31 5.61118 115.65941 15606 ft 359 kts 37°
2026-04-20 09:31 5.63099 115.67453 15152 ft 357 kts 37°
2026-04-20 09:31 5.65068 115.68953 14701 ft 355 kts 37°
2026-04-20 09:31 5.67035 115.70449 14249 ft 353 kts 37°
2026-04-20 09:32 5.68984 115.71932 13791 ft 351 kts 37°
2026-04-20 09:32 5.70929 115.73415 13340 ft 349 kts 37°
2026-04-20 09:32 5.72865 115.74869 12887 ft 347 kts 33°
2026-04-20 09:32 5.74908 115.76145 12421 ft 345 kts 31°
2026-04-20 09:33 5.76947 115.77401 11958 ft 343 kts 31°
2026-04-20 09:33 5.78971 115.78651 11492 ft 340 kts 31°
2026-04-20 09:33 5.80983 115.79892 11055 ft 337 kts 31°
2026-04-20 09:33 5.82938 115.81101 10958 ft 323 kts 31°
2026-04-20 09:34 5.84817 115.82263 10848 ft 311 kts 31°
2026-04-20 09:34 5.86630 115.83384 10710 ft 301 kts 31°
2026-04-20 09:34 5.90078 115.85511 10454 ft 281 kts 31°
2026-04-20 09:35 5.91714 115.86519 10331 ft 271 kts 31°
2026-04-20 09:35 5.93269 115.87479 10216 ft 262 kts 31°
2026-04-20 09:35 5.94833 115.88444 10102 ft 259 kts 31°
2026-04-20 09:35 5.96360 115.89387 9975 ft 258 kts 31°
2026-04-20 09:36 5.97878 115.90323 9634 ft 259 kts 31°
2026-04-20 09:36 5.99409 115.91269 9317 ft 257 kts 31°
2026-04-20 09:36 6.00928 115.92207 9007 ft 255 kts 31°
2026-04-20 09:36 6.02433 115.93137 8697 ft 253 kts 31°
2026-04-20 09:37 6.03929 115.94064 8390 ft 252 kts 31°
2026-04-20 09:37 6.05414 115.94984 8084 ft 250 kts 31°
2026-04-20 09:37 6.06895 115.95898 7772 ft 249 kts 31°
2026-04-20 09:37 6.08368 115.96808 7480 ft 248 kts 31°
2026-04-20 09:38 6.09834 115.97712 7184 ft 247 kts 31°
2026-04-20 09:38 6.11289 115.98611 6888 ft 246 kts 31°
2026-04-20 09:38 6.12741 115.99511 6590 ft 243 kts 31°
2026-04-20 09:38 6.14173 116.00397 6298 ft 239 kts 31°
2026-04-20 09:39 6.15559 116.01260 6024 ft 231 kts 33°
2026-04-20 09:39 6.16613 116.02440 5725 ft 229 kts 69°
2026-04-20 09:39 6.16747 116.03999 5445 ft 226 kts 106°
2026-04-20 09:39 6.16133 116.05437 5165 ft 223 kts 115°
2026-04-20 09:40 6.15527 116.06870 4873 ft 223 kts 112°
2026-04-20 09:40 6.14956 116.08316 4587 ft 222 kts 112°
2026-04-20 09:40 6.14394 116.09757 4303 ft 221 kts 111°
2026-04-20 09:40 6.13829 116.11185 4024 ft 220 kts 115°
2026-04-20 09:41 6.12913 116.12315 3785 ft 210 kts 151°
2026-04-20 09:41 6.11533 116.12578 3483 ft 201 kts 192°
2026-04-20 09:41 6.10244 116.12072 3230 ft 194 kts 205°
2026-04-20 09:41 6.09032 116.11568 3015 ft 187 kts 203°
2026-04-20 09:42 6.07865 116.11089 2781 ft 175 kts 204°
2026-04-20 09:42 6.06776 116.10634 2560 ft 165 kts 204°
2026-04-20 09:42 6.05747 116.10200 2345 ft 156 kts 204°
2026-04-20 09:42 6.04758 116.09783 2146 ft 153 kts 204°
2026-04-20 09:43 6.03779 116.09369 1950 ft 152 kts 204°
2026-04-20 09:43 6.02807 116.08959 1745 ft 151 kts 204°
2026-04-20 09:43 6.01842 116.08551 1550 ft 150 kts 204°
2026-04-20 09:43 6.00877 116.08143 1350 ft 150 kts 204°
2026-04-20 09:44 5.99916 116.07737 1150 ft 150 kts 204°
2026-04-20 09:44 5.98958 116.07327 937 ft 149 kts 205°
2026-04-20 09:44 5.98004 116.06922 732 ft 149 kts 204°
2026-04-20 09:44 5.97048 116.06526 572 ft 149 kts 204°
2026-04-20 09:45 5.96099 116.06122 353 ft 148 kts 204°
2026-04-20 09:45 5.95152 116.05720 138 ft 148 kts 204°
2026-04-20 09:45 5.94219 116.05323 32 ft 139 kts 204°
2026-04-20 09:45 5.93468 116.05007 29 ft 92 kts 202°
2026-04-20 09:46 5.93028 116.04822 29 ft 44 kts 203°
2026-04-20 09:46 5.92869 116.04767 29 ft 21 kts 190°
2026-04-20 09:46 5.92745 116.04752 29 ft 15 kts 174°
2026-04-20 09:46 5.92656 116.04762 29 ft 10 kts 173°
2026-04-20 09:47 5.92594 116.04769 29 ft 8 kts 173°
2026-04-20 09:47 5.92542 116.04775 29 ft 8 kts 173°
2026-04-20 09:47 5.92483 116.04778 29 ft 9 kts 185°
2026-04-20 09:47 5.92421 116.04776 29 ft 9 kts 142°
2026-04-20 09:48 5.92414 116.04788 29 ft 0 kts 115°
2026-04-20 09:49 5.92411 116.04793 29 ft 2 kts 115°
2026-04-20 09:49 5.92399 116.04819 29 ft 5 kts 115°
2026-04-20 09:49 5.92389 116.04855 29 ft 6 kts 104°
2026-04-20 09:49 5.92384 116.04895 29 ft 4 kts 77°
2026-04-20 09:50 5.92387 116.04900 29 ft 1 kts 59°
2026-04-20 09:50 5.92408 116.04907 29 ft 5 kts 21°
2026-04-20 09:50 5.92424 116.04932 29 ft 3 kts 79°
2026-04-20 09:50 5.92426 116.04945 29 ft 0 kts 83°
2026-04-20 09:51 5.92427 116.04950 29 ft 1 kts 84°
2026-04-20 09:51 5.92427 116.04952 29 ft 0 kts 84°